Location: Spruce Knob
(38.6995°N, 79.5330°W)
Time: 17:55:57
(UTC-04:00)

FO-29 - Visible Passes

Search period start: 31 March 2023 00:00
Search period end: 10 April 2023 00:00
Orbit: 801 x 1320 km, 98.5° (Epoch: 31 March)

Date Brightness Start Highest point End Pass type
(mag) Time Alt. Az. Time Alt. Az. Time Alt. Az.
31 Mar 12.5 04:34:51 10° ENE 04:37:52 13° E 04:40:45 10° ESE visible
31 Mar 10.0 06:16:32 10° NNE 06:24:05 83° ESE 06:30:47 10° SSW visible
01 Apr 11.5 05:22:11 10° NNE 05:28:42 33° E 05:34:35 10° SSE visible
02 Apr 12.6 04:30:39 10° ENE 04:32:42 11° E 04:34:41 10° E visible
02 Apr 10.1 06:11:35 10° NNE 06:19:02 78° ESE 06:25:36 10° S visible
03 Apr 11.6 05:17:20 10° NNE 05:23:35 30° E 05:29:14 10° SSE visible
04 Apr 10.1 06:06:39 10° NNE 06:13:58 73° ESE 06:20:23 10° S visible
05 Apr 11.7 05:12:30 10° NE 05:18:27 28° E 05:23:49 10° SSE visible
06 Apr 10.2 06:01:42 10° NNE 06:08:52 67° E 06:15:10 10° S visible
07 Apr 11.8 05:07:41 10° NE 05:13:18 25° E 05:18:24 10° SE visible
08 Apr 10.3 05:56:45 10° NNE 06:03:46 62° E 06:09:55 10° S visible
09 Apr 11.9 05:02:53 10° NE 05:08:08 23° E 05:12:56 10° SE visible
